[[{"header":{"parameterUnit":"m.s-1","parameterCategory":1,"la1":30.2992,"la2":30.254,"lo1":-89.0895,"lo2":-89.0443,"dy":0.0025,"dx":0.0025,"nx":19,"ny":19,"refTime":"2026-04-20T03:00:00:Z","depth":0,"parameterNumber":2,"parameterNumberName":"U-component_of_WINDS"},"data":[0,0,0,-7.7181,-7.7184,-7.7313,-7.7314,-7.7498,-7.75,0,0,0,0,0,0,0,0,0,0,0,-7.7155,-7.7157,-7.718,-7.7184,-7.7313,-7.7314,-7.7498,-7.75,0,0,0,0,0,0,0,0,0,0,0,-7.7155,-7.7157,-7.7159,-7.7185,-7.7313,-7.7314,-7.7497,-7.7392,0,0,0,0,0,0,0,0,0,0,-7.7263,-7.7253,-7.7156,-7.7159,-7.7185,-7.7313,-7.7314,-7.7387,-7.7399,-7.7448,0,-7.7497,0,-7.7502,-7.7514,-7.7514,0,0,0,-7.7174,-7.7244,-7.7267,-7.7159,-7.7187,-7.7313,-7.7252,-7.7394,-7.7407,-7.7464,-7.7499,-7.7506,-7.7505,-7.7515,-7.7516,-7.7838,-7.784,0,0,-7.7166,-7.7185,-7.7258,-7.7276,-7.7259,-7.7248,-7.7256,-7.7401,-7.744,-7.75,-7.751,-7.7508,-7.7516,-7.7518,-7.7836,-7.7839,0,0,0,-7.7153,-7.7181,-7.72,-7.7269,-7.7291,-7.7252,-7.7261,-7.7434,-7.7438,-7.7511,-7.751,-7.7518,-7.752,-7.7834,-7.7837,-7.7953,0,0,0,-7.7148,-7.7173,-7.7197,-7.721,-7.7289,-7.7364,-7.7291,-7.7428,-7.7444,-7.7509,-7.7518,-7.7522,-7.7832,-7.7836,-7.7945,-7.8003,0,0,0,-7.7142,-7.7172,-7.7195,-7.7211,-7.7267,-7.7362,-7.7374,-7.7431,-7.7444,-7.7515,-7.7523,-7.783,-7.7835,-7.7938,-7.7991,-7.8091,0,0,0,-7.7141,-7.7296,-7.7197,-7.737,-7.7267,-7.7434,-7.7373,-7.7497,-7.7571,-7.7519,-7.7832,-7.7837,-7.7935,-7.7984,-7.8084,-7.8177,-7.8219,0,0,-7.7346,-7.7321,-7.7421,-7.7337,-7.7526,-7.7412,-7.7618,-7.7668,-7.7657,-7.7778,-7.7786,-7.7947,-7.799,-7.809,-7.845,-7.8483,0,0,0,-7.7492,-7.7564,-7.761,-7.7683,-7.7727,-7.7768,-7.7785,-7.7803,-7.7905,-7.7724,-7.8012,-7.8037,-7.8094,-7.8138,-7.8166,-7.8213,-7.7859,-7.7858,-7.7858,-7.7806,-7.7786,-7.795,-7.7946,-7.8017,-7.8035,-7.809,-7.8117,-7.8075,-7.8144,-7.8178,-7.84,-7.8451,-7.8472,-7.8522,-7.8229,-7.8229,-7.8229,-7.823,-7.8102,-7.8199,-7.8143,-7.828,-7.8258,-7.8373,-7.8396,-7.8363,-7.8465,-7.8372,-7.8421,-7.8317,-7.8509,-7.8551,-7.8238,-7.8237,-7.8236,-7.8235,-7.8234,-7.8303,-7.8345,-7.8368,-7.8472,-7.8554,-7.8545,-7.8647,-7.8624,-7.8602,-7.8652,-7.8684,-7.8682,-7.8674,-7.867,-7.8671,-7.8671,-7.8672,-7.8672,-7.8673,-7.85,-7.8522,-7.8611,-7.8672,-7.8716,-7.8771,-7.8793,-7.8835,-7.8875,-7.885,-7.885,-7.8799,-7.8534,-7.8465,-7.8685,-7.8683,-7.8681,-7.868,-7.8679,-7.8801,-7.873,-7.8868,-7.8913,-7.8983,-7.9066,-7.9036,-7.9125,-7.9157,-7.9208,-7.9149,-7.8957,-7.8928,-7.8906,-7.8848,-7.9154,-7.9154,-7.9154,-7.9154,-7.8967,-7.8952,-7.9088,-7.9161,-7.923,-7.9218,-7.9373,-7.9392,-7.94,-7.9418,-7.9372,-7.9296,-7.9274,-7.9258,-7.9228,-7.9174,-7.9555,-7.9556,-7.9556,-7.915,-7.9141,-7.9277,-7.9286,-7.934,-7.9387,-7.9532,-7.9616,-7.9611,-7.9572,-7.9431,-7.9414,-7.9291,-7.9253,-7.9205,-7.9159,-7.906,0,0]},{"header":{"parameterUnit":"m.s-1","parameterCategory":1,"la1":30.2992,"la2":30.254,"lo1":-89.0895,"lo2":-89.0443,"dy":0.0025,"dx":0.0025,"nx":19,"ny":19,"refTime":"2026-04-20T03:00:00:Z","depth":0,"parameterNumber":3,"parameterNumberName":"V-component_of_WINDS"},"data":[0,0,0,2.9631,2.9631,2.9632,2.9632,2.9644,2.9645,0,0,0,0,0,0,0,0,0,0,0,2.9637,2.9638,2.9631,2.9631,2.9632,2.9632,2.9644,2.9645,0,0,0,0,0,0,0,0,0,0,0,2.9637,2.9638,2.9638,2.9631,2.9632,2.9632,2.9644,2.964,0,0,0,0,0,0,0,0,0,0,2.9637,2.9649,2.9638,2.9638,2.9631,2.9633,2.9632,2.9639,2.964,2.9649,0,2.9658,0,2.9652,2.9646,2.9646,0,0,0,2.9626,2.9648,2.9643,2.9638,2.9632,2.9633,2.963,2.9639,2.964,2.965,2.9658,2.9659,2.9652,2.9646,2.9646,2.9717,2.9717,0,0,2.9626,2.9641,2.9642,2.9644,2.9645,2.963,2.9631,2.964,2.965,2.9658,2.9659,2.9652,2.9646,2.9647,2.9716,2.9717,0,0,0,2.9629,2.9641,2.9635,2.9644,2.9643,2.9631,2.9631,2.965,2.9646,2.9659,2.9652,2.9646,2.9647,2.9716,2.9717,2.976,0,0,0,2.9629,2.9643,2.9635,2.9644,2.9643,2.9646,2.9641,2.9646,2.9646,2.9652,2.9647,2.9647,2.9715,2.9716,2.9758,2.9778,0,0,0,2.9635,2.9644,2.9646,2.9645,2.9646,2.9646,2.9643,2.9646,2.9643,2.9646,2.9647,2.9715,2.9716,2.9755,2.9774,2.9802,0,0,0,2.9645,2.9683,2.9647,2.9688,2.9647,2.9674,2.9643,2.9662,2.967,2.9647,2.9715,2.9716,2.9755,2.9772,2.9799,2.9827,2.9841,0,0,2.9702,2.9691,2.9714,2.9681,2.9719,2.9672,2.9716,2.9708,2.9694,2.971,2.9712,2.9759,2.9774,2.9801,2.991,2.9921,0,0,0,2.9736,2.9753,2.976,2.9769,2.9766,2.9765,2.9749,2.9747,2.976,2.9706,2.9776,2.9784,2.98,2.9812,2.9821,2.9834,2.9723,2.9723,2.9723,2.9836,2.9819,2.9855,2.9838,2.9848,2.9833,2.984,2.9834,2.9811,2.9828,2.9832,2.9901,2.9916,2.9923,2.9936,2.9846,2.9846,2.9846,2.9847,2.9917,2.9938,2.991,2.9936,2.9917,2.9939,2.9927,2.9911,2.9928,2.9895,2.9908,2.9874,2.9935,2.9946,2.985,2.9849,2.9849,2.9848,2.9848,2.998,2.9987,2.9985,2.9999,3.0011,2.9993,3.0012,2.9993,2.9976,2.9989,2.9992,2.9991,2.9988,2.9992,2.9992,2.9992,2.9993,2.9993,2.9993,3.0046,3.0043,3.0061,3.0063,3.0068,3.0072,3.006,3.0064,3.0064,3.0049,3.0049,3.0026,2.9945,2.9925,2.9996,2.9996,2.9995,2.9995,2.9995,3.0134,3.0112,3.014,3.0146,3.0148,3.0162,3.014,3.0151,3.0152,3.0162,3.0137,3.008,3.0067,3.0059,3.0043,3.014,3.014,3.014,3.014,3.0187,3.018,3.0206,3.0216,3.0224,3.0207,3.0241,3.0233,3.0221,3.0221,3.0204,3.0181,3.0174,3.0165,3.0155,3.0139,3.0259,3.0259,3.0259,3.024,3.0233,3.0265,3.0255,3.0256,3.0257,3.0289,3.0301,3.0283,3.0264,3.022,3.0215,3.0177,3.0166,3.0144,3.0129,3.01,0,0]}]]